Time,TemperatureF,DewpointF,PressureIn,WindDirection,WindDirectionDegrees,WindSpeedMPH,WindSpeedGustMPH,Humidity,HourlyPrecipIn,Conditions,Clouds,dailyrainin,SoftwareType,DateUTC
2013-02-13 00:01:00,45.7,37.5,30.32,SSE,150,0.0,1.0,73,0.00,,,0.00,Wunderground v.1.15,2013-02-13 08:01:00,
2013-02-13 00:07:00,45.0,36.9,30.33,SSE,150,0.0,1.0,73,0.00,,,0.00,Wunderground v.1.15,2013-02-13 08:07:00,
2013-02-13 00:12:00,44.1,36.3,30.33,SSE,150,0.0,1.0,74,0.00,,,0.00,Wunderground v.1.15,2013-02-13 08:12:00,
2013-02-13 00:18:00,43.4,36.3,30.33,SSE,150,0.0,2.0,76,0.00,,,0.00,Wunderground v.1.15,2013-02-13 08:18:00,
2013-02-13 00:24:00,42.9,36.5,30.33,SSE,150,0.0,1.0,78,0.00,,,0.00,Wunderground v.1.15,2013-02-13 08:24:00,
2013-02-13 00:30:00,42.6,36.5,30.33,SSE,150,0.0,0.0,79,0.00,,,0.00,Wunderground v.1.15,2013-02-13 08:30:00,
2013-02-13 00:35:00,42.5,36.8,30.33,SSE,150,0.0,0.0,80,0.00,,,0.00,Wunderground v.1.15,2013-02-13 08:35:00,
2013-02-13 00:41:00,42.4,36.7,30.33,SSE,150,0.0,0.0,80,0.00,,,0.00,Wunderground v.1.15,2013-02-13 08:41:00,
2013-02-13 00:47:00,42.2,36.5,30.33,SSE,150,0.0,0.0,80,0.00,,,0.00,Wunderground v.1.15,2013-02-13 08:47:00,
2013-02-13 00:53:00,42.1,36.4,30.33,SSE,150,1.0,1.0,80,0.00,,,0.00,Wunderground v.1.15,2013-02-13 08:53:00,
2013-02-13 00:58:00,41.9,36.2,30.33,SSE,150,0.0,1.0,80,0.00,,,0.00,Wunderground v.1.15,2013-02-13 08:58:00,
2013-02-13 01:04:00,41.7,36.3,30.33,SSE,150,1.0,1.0,81,0.00,,,0.00,Wunderground v.1.15,2013-02-13 09:04:00,
2013-02-13 01:10:00,41.5,36.1,30.33,SSE,150,1.0,1.0,81,0.00,,,0.00,Wunderground v.1.15,2013-02-13 09:10:00,
2013-02-13 01:16:00,41.4,36.3,30.33,SSE,150,0.0,2.0,82,0.00,,,0.00,Wunderground v.1.15,2013-02-13 09:16:00,
2013-02-13 01:21:00,41.3,36.2,30.33,SSE,150,1.0,1.0,82,0.00,,,0.00,Wunderground v.1.15,2013-02-13 09:21:00,
2013-02-13 01:27:00,41.2,36.1,30.33,SSE,150,2.0,2.0,82,0.00,,,0.00,Wunderground v.1.15,2013-02-13 09:27:00,
2013-02-13 01:33:00,41.2,36.4,30.33,SSE,150,2.0,2.0,83,0.00,,,0.00,Wunderground v.1.15,2013-02-13 09:33:00,
2013-02-13 01:39:00,41.2,36.4,30.33,SSE,150,2.0,2.0,83,0.00,,,0.00,Wunderground v.1.15,2013-02-13 09:39:00,
2013-02-13 01:44:00,41.3,36.5,30.33,SSE,150,0.0,1.0,83,0.00,,,0.00,Wunderground v.1.15,2013-02-13 09:44:00,
2013-02-13 01:50:00,41.3,36.5,30.33,SSE,150,0.0,0.0,83,0.00,,,0.00,Wunderground v.1.15,2013-02-13 09:50:00,
2013-02-13 01:56:00,41.4,36.6,30.34,SSE,150,0.0,0.0,83,0.00,,,0.00,Wunderground v.1.15,2013-02-13 09:56:00,
2013-02-13 02:01:00,41.4,36.6,30.34,SSE,150,0.0,0.0,83,0.00,,,0.00,Wunderground v.1.15,2013-02-13 10:01:00,
2013-02-13 02:06:00,41.3,36.5,30.33,SSE,150,0.0,1.0,83,0.00,,,0.00,Wunderground v.1.15,2013-02-13 10:06:00,
2013-02-13 02:11:00,41.4,36.6,30.33,SSE,150,0.0,0.0,83,0.00,,,0.00,Wunderground v.1.15,2013-02-13 10:11:00,
2013-02-13 02:16:00,41.3,36.5,30.34,SSE,150,0.0,0.0,83,0.00,,,0.00,Wunderground v.1.15,2013-02-13 10:16:00,
2013-02-13 02:21:00,41.3,36.2,30.33,SSE,150,0.0,0.0,82,0.00,,,0.00,Wunderground v.1.15,2013-02-13 10:21:00,
2013-02-13 02:26:00,41.3,36.2,30.33,SSE,150,0.0,0.0,82,0.00,,,0.00,Wunderground v.1.15,2013-02-13 10:26:00,
2013-02-13 02:31:00,41.2,36.1,30.33,SSE,150,0.0,0.0,82,0.00,,,0.00,Wunderground v.1.15,2013-02-13 10:31:00,
2013-02-13 02:36:00,41.1,36.0,30.33,SSE,150,0.0,0.0,82,0.00,,,0.00,Wunderground v.1.15,2013-02-13 10:36:00,
2013-02-13 02:41:00,41.0,35.9,30.33,SSE,150,0.0,0.0,82,0.00,,,0.00,Wunderground v.1.15,2013-02-13 10:41:00,
2013-02-13 02:46:00,40.9,35.8,30.33,SSE,150,1.0,2.0,82,0.00,,,0.00,Wunderground v.1.15,2013-02-13 10:46:00,
2013-02-13 02:51:00,41.0,36.2,30.33,SSE,150,1.0,1.0,83,0.00,,,0.00,Wunderground v.1.15,2013-02-13 10:51:00,
2013-02-13 02:56:00,41.0,36.2,30.33,SSE,150,0.0,2.0,83,0.00,,,0.00,Wunderground v.1.15,2013-02-13 10:56:00,
2013-02-13 03:01:00,41.1,36.3,30.33,SSE,150,1.0,2.0,83,0.00,,,0.00,Wunderground v.1.15,2013-02-13 11:01:00,
2013-02-13 03:06:00,41.0,36.2,30.33,SSE,150,0.0,2.0,83,0.00,,,0.00,Wunderground v.1.15,2013-02-13 11:06:00,
2013-02-13 03:11:00,41.0,36.2,30.33,SSE,150,0.0,0.0,83,0.00,,,0.00,Wunderground v.1.15,2013-02-13 11:11:00,
2013-02-13 03:16:00,40.9,36.1,30.33,SSE,150,0.0,0.0,83,0.00,,,0.00,Wunderground v.1.15,2013-02-13 11:16:00,
2013-02-13 03:21:00,40.6,35.5,30.32,SSE,150,0.0,0.0,82,0.00,,,0.00,Wunderground v.1.15,2013-02-13 11:21:00,
2013-02-13 03:26:00,40.4,35.3,30.32,SSE,150,0.0,0.0,82,0.00,,,0.00,Wunderground v.1.15,2013-02-13 11:26:00,
2013-02-13 03:31:00,40.3,35.2,30.32,SSE,150,0.0,0.0,82,0.00,,,0.00,Wunderground v.1.15,2013-02-13 11:31:00,
2013-02-13 03:36:00,40.1,35.4,30.32,SSE,150,1.0,1.0,83,0.00,,,0.00,Wunderground v.1.15,2013-02-13 11:36:00,
2013-02-13 03:41:00,40.1,35.7,30.32,SSE,150,1.0,1.0,84,0.00,,,0.00,Wunderground v.1.15,2013-02-13 11:41:00,
2013-02-13 03:46:00,40.1,36.0,30.32,SSE,150,2.0,2.0,85,0.00,,,0.00,Wunderground v.1.15,2013-02-13 11:46:00,
2013-02-13 03:51:00,40.1,36.0,30.32,SSE,150,2.0,2.0,85,0.00,,,0.00,Wunderground v.1.15,2013-02-13 11:51:00,
2013-02-13 03:56:00,40.1,36.0,30.32,SSE,150,0.0,2.0,85,0.00,,,0.00,Wunderground v.1.15,2013-02-13 11:56:00,
2013-02-13 04:01:00,40.0,35.9,30.32,SSE,150,0.0,0.0,85,0.00,,,0.00,Wunderground v.1.15,2013-02-13 12:01:00,
2013-02-13 04:06:00,40.0,35.9,30.32,SSE,150,0.0,0.0,85,0.00,,,0.00,Wunderground v.1.15,2013-02-13 12:06:00,
2013-02-13 04:11:00,39.9,35.8,30.32,SSE,150,0.0,0.0,85,0.00,,,0.00,Wunderground v.1.15,2013-02-13 12:11:00,
2013-02-13 04:16:00,39.8,35.4,30.32,SSE,150,0.0,0.0,84,0.00,,,0.00,Wunderground v.1.15,2013-02-13 12:16:00,
2013-02-13 04:21:00,39.7,35.3,30.33,SSE,150,0.0,0.0,84,0.00,,,0.00,Wunderground v.1.15,2013-02-13 12:21:00,
2013-02-13 04:26:00,39.4,35.0,30.33,SSE,150,0.0,1.0,84,0.00,,,0.00,Wunderground v.1.15,2013-02-13 12:26:00,
2013-02-13 04:31:00,39.1,34.7,30.33,SSE,150,0.0,0.0,84,0.00,,,0.00,Wunderground v.1.15,2013-02-13 12:31:00,
2013-02-13 04:36:00,38.8,34.4,30.33,SSE,150,0.0,0.0,84,0.00,,,0.00,Wunderground v.1.15,2013-02-13 12:36:00,
2013-02-13 04:41:00,38.5,34.1,30.33,SSE,150,0.0,0.0,84,0.00,,,0.00,Wunderground v.1.15,2013-02-13 12:41:00,
2013-02-13 04:46:00,38.3,33.9,30.33,SSE,150,0.0,0.0,84,0.00,,,0.00,Wunderground v.1.15,2013-02-13 12:46:00,
2013-02-13 04:51:00,38.2,33.8,30.33,SSE,150,0.0,0.0,84,0.00,,,0.00,Wunderground v.1.15,2013-02-13 12:51:00,
2013-02-13 04:56:00,38.0,33.6,30.33,SSE,150,0.0,0.0,84,0.00,,,0.00,Wunderground v.1.15,2013-02-13 12:56:00,
2013-02-13 05:01:00,37.9,33.5,30.33,SSE,150,0.0,0.0,84,0.00,,,0.00,Wunderground v.1.15,2013-02-13 13:01:00,
2013-02-13 05:06:00,37.7,33.6,30.33,SSE,150,0.0,0.0,85,0.00,,,0.00,Wunderground v.1.15,2013-02-13 13:06:00,
2013-02-13 05:11:00,37.5,33.4,30.33,SSE,150,0.0,0.0,85,0.00,,,0.00,Wunderground v.1.15,2013-02-13 13:11:00,
2013-02-13 05:16:00,37.4,33.3,30.33,SSE,150,0.0,0.0,85,0.00,,,0.00,Wunderground v.1.15,2013-02-13 13:16:00,
2013-02-13 05:21:00,37.3,33.2,30.33,SSE,150,0.0,0.0,85,0.00,,,0.00,Wunderground v.1.15,2013-02-13 13:21:00,
2013-02-13 05:26:00,37.3,33.5,30.33,SSE,150,0.0,1.0,86,0.00,,,0.00,Wunderground v.1.15,2013-02-13 13:26:00,
2013-02-13 05:31:00,37.2,33.4,30.33,SSE,150,0.0,1.0,86,0.00,,,0.00,Wunderground v.1.15,2013-02-13 13:31:00,
2013-02-13 05:36:00,37.2,33.7,30.33,SSE,150,0.0,1.0,87,0.00,,,0.00,Wunderground v.1.15,2013-02-13 13:36:00,
2013-02-13 05:41:00,37.2,33.7,30.33,SSE,150,0.0,0.0,87,0.00,,,0.00,Wunderground v.1.15,2013-02-13 13:41:00,
2013-02-13 05:46:00,37.2,34.0,30.33,SSE,150,1.0,2.0,88,0.00,,,0.00,Wunderground v.1.15,2013-02-13 13:46:00,
2013-02-13 05:51:00,37.2,34.0,30.33,SSE,150,0.0,2.0,88,0.00,,,0.00,Wunderground v.1.15,2013-02-13 13:51:00,
2013-02-13 05:57:00,37.2,34.0,30.33,SSE,150,0.0,2.0,88,0.00,,,0.00,Wunderground v.1.15,2013-02-13 13:57:00,
2013-02-13 06:02:00,37.2,34.0,30.33,SSE,150,0.0,0.0,88,0.00,,,0.00,Wunderground v.1.15,2013-02-13 14:02:00,
2013-02-13 06:07:00,37.1,33.9,30.33,SSE,150,0.0,0.0,88,0.00,,,0.00,Wunderground v.1.15,2013-02-13 14:07:00,
2013-02-13 06:12:00,37.1,33.9,30.33,SSE,150,0.0,1.0,88,0.00,,,0.00,Wunderground v.1.15,2013-02-13 14:12:00,
2013-02-13 06:17:00,37.1,33.9,30.33,SSE,150,0.0,1.0,88,0.00,,,0.00,Wunderground v.1.15,2013-02-13 14:17:00,
2013-02-13 06:22:00,37.2,34.0,30.33,SSE,150,0.0,0.0,88,0.00,,,0.00,Wunderground v.1.15,2013-02-13 14:22:00,
2013-02-13 06:27:00,37.2,34.0,30.33,SSE,150,0.0,0.0,88,0.00,,,0.00,Wunderground v.1.15,2013-02-13 14:27:00,
2013-02-13 06:32:00,37.2,34.0,30.33,SSE,150,0.0,0.0,88,0.00,,,0.00,Wunderground v.1.15,2013-02-13 14:32:00,
2013-02-13 06:37:00,37.1,34.2,30.33,SSE,150,0.0,0.0,89,0.00,,,0.00,Wunderground v.1.15,2013-02-13 14:37:00,
2013-02-13 06:42:00,37.1,34.2,30.33,SSE,150,0.0,0.0,89,0.00,,,0.00,Wunderground v.1.15,2013-02-13 14:42:00,
2013-02-13 06:47:00,37.1,34.2,30.33,SSE,150,0.0,1.0,89,0.00,,,0.00,Wunderground v.1.15,2013-02-13 14:47:00,
2013-02-13 06:52:00,37.1,34.2,30.34,SSE,150,0.0,1.0,89,0.00,,,0.00,Wunderground v.1.15,2013-02-13 14:52:00,
2013-02-13 06:57:00,37.1,34.2,30.34,SSE,150,0.0,1.0,89,0.00,,,0.00,Wunderground v.1.15,2013-02-13 14:57:00,
2013-02-13 07:02:00,37.1,34.2,30.34,SSE,150,0.0,0.0,89,0.00,,,0.00,Wunderground v.1.15,2013-02-13 15:02:00,
2013-02-13 07:07:00,37.1,34.2,30.34,SSE,150,0.0,1.0,89,0.00,,,0.00,Wunderground v.1.15,2013-02-13 15:07:00,
2013-02-13 07:12:00,37.3,34.4,30.34,SSE,150,0.0,1.0,89,0.00,,,0.00,Wunderground v.1.15,2013-02-13 15:12:00,
2013-02-13 07:17:00,37.5,34.6,30.34,SSE,150,0.0,1.0,89,0.00,,,0.00,Wunderground v.1.15,2013-02-13 15:17:00,
2013-02-13 07:22:00,37.6,34.9,30.34,SSE,150,0.0,1.0,90,0.00,,,0.00,Wunderground v.1.15,2013-02-13 15:22:00,
2013-02-13 07:27:00,37.7,34.8,30.34,SSE,150,0.0,1.0,89,0.00,,,0.00,Wunderground v.1.15,2013-02-13 15:27:00,
2013-02-13 07:32:00,37.8,35.1,30.34,SSE,150,0.0,0.0,90,0.00,,,0.00,Wunderground v.1.15,2013-02-13 15:32:00,
2013-02-13 07:37:00,38.0,35.0,30.34,SSE,150,0.0,0.0,89,0.00,,,0.00,Wunderground v.1.15,2013-02-13 15:37:00,
2013-02-13 07:42:00,38.3,35.6,30.35,SSE,150,0.0,0.0,90,0.00,,,0.00,Wunderground v.1.15,2013-02-13 15:42:00,
2013-02-13 07:47:00,38.7,36.0,30.35,SSE,150,1.0,1.0,90,0.00,,,0.00,Wunderground v.1.15,2013-02-13 15:47:00,
2013-02-13 07:52:00,39.6,36.6,30.35,SSE,150,0.0,0.0,89,0.00,,,0.00,Wunderground v.1.15,2013-02-13 15:52:00,
2013-02-13 07:57:00,40.6,37.0,30.35,SSE,150,1.0,2.0,87,0.00,,,0.00,Wunderground v.1.15,2013-02-13 15:57:00,
2013-02-13 08:02:00,41.3,37.1,30.35,SSE,150,0.0,0.0,85,0.00,,,0.00,Wunderground v.1.15,2013-02-13 16:02:00,
2013-02-13 08:07:00,42.0,37.5,30.35,SSE,150,0.0,1.0,84,0.00,,,0.00,Wunderground v.1.15,2013-02-13 16:07:00,
2013-02-13 08:12:00,42.7,37.9,30.35,SSE,150,0.0,1.0,83,0.00,,,0.00,Wunderground v.1.15,2013-02-13 16:12:00,
2013-02-13 08:17:00,43.4,38.3,30.35,SSE,150,0.0,1.0,82,0.00,,,0.00,Wunderground v.1.15,2013-02-13 16:17:00,
2013-02-13 08:22:00,44.5,38.7,30.35,SSE,150,0.0,0.0,80,0.00,,,0.00,Wunderground v.1.15,2013-02-13 16:22:00,
2013-02-13 08:27:00,45.0,38.9,30.35,SSE,150,0.0,0.0,79,0.00,,,0.00,Wunderground v.1.15,2013-02-13 16:27:00,
2013-02-13 08:32:00,45.8,39.0,30.35,SSE,150,2.0,2.0,77,0.00,,,0.00,Wunderground v.1.15,2013-02-13 16:32:00,
2013-02-13 08:37:00,46.1,39.0,30.35,SSE,150,2.0,3.0,76,0.00,,,0.00,Wunderground v.1.15,2013-02-13 16:37:00,
2013-02-13 08:42:00,46.5,39.3,30.35,SSE,150,1.0,3.0,76,0.00,,,0.00,Wunderground v.1.15,2013-02-13 16:42:00,
2013-02-13 08:47:00,47.1,39.6,30.35,SSE,150,3.0,3.0,75,0.00,,,0.00,Wunderground v.1.15,2013-02-13 16:47:00,
2013-02-13 08:52:00,47.2,40.7,30.35,SSE,150,2.0,3.0,78,0.00,,,0.00,Wunderground v.1.15,2013-02-13 16:52:00,
2013-02-13 08:57:00,47.7,41.2,30.35,SSE,150,2.0,4.0,78,0.00,,,0.00,Wunderground v.1.15,2013-02-13 16:57:00,
2013-02-13 09:02:00,47.9,40.7,30.35,SSE,150,3.0,3.0,76,0.00,,,0.00,Wunderground v.1.15,2013-02-13 17:02:00,
2013-02-13 09:07:00,47.9,41.0,30.35,SSE,150,3.0,4.0,77,0.00,,,0.00,Wunderground v.1.15,2013-02-13 17:07:00,
2013-02-13 09:12:00,48.2,41.0,30.35,SSE,150,2.0,3.0,76,0.00,,,0.00,Wunderground v.1.15,2013-02-13 17:12:00,
2013-02-13 09:17:00,48.7,40.8,30.35,SSE,150,2.0,3.0,74,0.00,,,0.00,Wunderground v.1.15,2013-02-13 17:17:00,
2013-02-13 09:22:00,48.6,41.0,30.35,SSE,150,0.0,3.0,75,0.00,,,0.00,Wunderground v.1.15,2013-02-13 17:22:00,
2013-02-13 09:27:00,49.7,41.7,30.35,SSE,150,1.0,3.0,74,0.00,,,0.00,Wunderground v.1.15,2013-02-13 17:27:00,
2013-02-13 09:32:00,49.5,41.6,30.36,SSE,150,1.0,4.0,74,0.00,,,0.00,Wunderground v.1.15,2013-02-13 17:32:00,
2013-02-13 09:37:00,49.4,41.5,30.36,SSE,150,1.0,4.0,74,0.00,,,0.00,Wunderground v.1.15,2013-02-13 17:37:00,
2013-02-13 09:42:00,49.9,41.6,30.36,SSE,150,0.0,2.0,73,0.00,,,0.00,Wunderground v.1.15,2013-02-13 17:42:00,
2013-02-13 09:47:00,49.9,41.6,30.36,SSE,150,1.0,2.0,73,0.00,,,0.00,Wunderground v.1.15,2013-02-13 17:47:00,
2013-02-13 09:52:00,50.4,41.7,30.36,SSE,150,0.0,2.0,72,0.00,,,0.00,Wunderground v.1.15,2013-02-13 17:52:00,
2013-02-13 09:57:00,50.4,41.7,30.36,SSE,150,2.0,2.0,72,0.00,,,0.00,Wunderground v.1.15,2013-02-13 17:57:00,
2013-02-13 10:02:00,51.0,42.3,30.36,SSE,150,2.0,3.0,72,0.00,,,0.00,Wunderground v.1.15,2013-02-13 18:02:00,
2013-02-13 10:07:00,51.3,42.2,30.36,SSE,150,0.0,3.0,71,0.00,,,0.00,Wunderground v.1.15,2013-02-13 18:07:00,
2013-02-13 10:12:00,51.4,42.7,30.36,SSE,150,1.0,3.0,72,0.00,,,0.00,Wunderground v.1.15,2013-02-13 18:12:00,
2013-02-13 10:17:00,52.2,43.1,30.35,SSE,150,3.0,5.0,71,0.00,,,0.00,Wunderground v.1.15,2013-02-13 18:17:00,
2013-02-13 10:23:00,52.8,43.3,30.35,SSE,150,0.0,3.0,70,0.00,,,0.00,Wunderground v.1.15,2013-02-13 18:23:00,
2013-02-13 10:28:00,53.2,42.9,30.35,SSE,150,0.0,3.0,68,0.00,,,0.00,Wunderground v.1.15,2013-02-13 18:28:00,
2013-02-13 10:33:00,53.5,43.6,30.35,SSE,150,1.0,3.0,69,0.00,,,0.00,Wunderground v.1.15,2013-02-13 18:33:00,
2013-02-13 10:38:00,54.2,43.5,30.35,SSE,150,3.0,4.0,67,0.00,,,0.00,Wunderground v.1.15,2013-02-13 18:38:00,
2013-02-13 10:43:00,55.2,42.4,30.35,SSE,150,1.0,2.0,62,0.00,,,0.00,Wunderground v.1.15,2013-02-13 18:43:00,
2013-02-13 10:48:00,54.3,42.0,30.35,SSE,150,2.0,4.0,63,0.00,,,0.00,Wunderground v.1.15,2013-02-13 18:48:00,
2013-02-13 10:53:00,53.9,41.2,30.35,SSE,150,1.0,3.0,62,0.00,,,0.00,Wunderground v.1.15,2013-02-13 18:53:00,
2013-02-13 10:58:00,54.5,41.7,30.35,SSE,150,1.0,3.0,62,0.00,,,0.00,Wunderground v.1.15,2013-02-13 18:58:00,
2013-02-13 11:03:00,55.3,41.6,30.35,SSE,150,0.0,3.0,60,0.00,,,0.00,Wunderground v.1.15,2013-02-13 19:03:00,
2013-02-13 11:08:00,55.3,41.2,30.34,SSE,148,0.0,4.0,59,0.00,,,0.00,Wunderground v.1.15,2013-02-13 19:08:00,
2013-02-13 11:13:00,56.3,42.1,30.34,SSE,148,1.0,2.0,59,0.00,,,0.00,Wunderground v.1.15,2013-02-13 19:13:00,
2013-02-13 11:18:00,56.7,41.2,30.34,SSE,148,2.0,4.0,56,0.00,,,0.00,Wunderground v.1.15,2013-02-13 19:18:00,
2013-02-13 11:23:00,57.3,42.2,30.34,SSE,148,0.0,4.0,57,0.00,,,0.00,Wunderground v.1.15,2013-02-13 19:23:00,
2013-02-13 11:28:00,57.1,40.1,30.34,East,94,2.0,6.0,53,0.00,,,0.00,Wunderground v.1.15,2013-02-13 19:28:00,
2013-02-13 11:33:00,57.0,40.0,30.34,East,82,5.0,5.0,53,0.00,,,0.00,Wunderground v.1.15,2013-02-13 19:33:00,
2013-02-13 11:38:00,58.0,41.4,30.33,East,82,2.0,5.0,54,0.00,,,0.00,Wunderground v.1.15,2013-02-13 19:38:00,
2013-02-13 11:43:00,58.2,40.6,30.33,NE,44,0.0,5.0,52,0.00,,,0.00,Wunderground v.1.15,2013-02-13 19:43:00,
2013-02-13 11:48:00,58.1,41.0,30.33,NE,42,2.0,5.0,53,0.00,,,0.00,Wunderground v.1.15,2013-02-13 19:48:00,
2013-02-13 11:53:00,59.0,41.9,30.33,NNE,25,2.0,5.0,53,0.00,,,0.00,Wunderground v.1.15,2013-02-13 19:53:00,
2013-02-13 11:58:00,58.7,41.6,30.33,NNE,22,3.0,5.0,53,0.00,,,0.00,Wunderground v.1.15,2013-02-13 19:58:00,
2013-02-13 12:03:00,59.1,42.0,30.32,NNE,22,1.0,4.0,53,0.00,,,0.00,Wunderground v.1.15,2013-02-13 20:03:00,
2013-02-13 12:08:00,59.1,41.5,30.32,NNE,25,2.0,7.0,52,0.00,,,0.00,Wunderground v.1.15,2013-02-13 20:08:00,
2013-02-13 12:13:00,59.1,42.0,30.32,NNE,27,4.0,5.0,53,0.00,,,0.00,Wunderground v.1.15,2013-02-13 20:13:00,
2013-02-13 12:18:00,59.8,42.6,30.31,NNE,23,0.0,5.0,53,0.00,,,0.00,Wunderground v.1.15,2013-02-13 20:18:00,
2013-02-13 12:23:00,59.6,41.4,30.31,NNE,27,1.0,4.0,51,0.00,,,0.00,Wunderground v.1.15,2013-02-13 20:23:00,
2013-02-13 12:28:00,59.6,41.9,30.31,NNE,26,4.0,5.0,52,0.00,,,0.00,Wunderground v.1.15,2013-02-13 20:28:00,
2013-02-13 12:33:00,59.9,41.7,30.31,NNE,27,1.0,4.0,51,0.00,,,0.00,Wunderground v.1.15,2013-02-13 20:33:00,
2013-02-13 12:38:00,60.8,42.5,30.30,NNE,27,0.0,4.0,51,0.00,,,0.00,Wunderground v.1.15,2013-02-13 20:38:00,
2013-02-13 12:44:00,61.0,42.2,30.30,NNE,26,0.0,3.0,50,0.00,,,0.00,Wunderground v.1.15,2013-02-13 20:44:00,
2013-02-13 12:49:00,60.3,41.6,30.30,NNE,27,2.0,4.0,50,0.00,,,0.00,Wunderground v.1.15,2013-02-13 20:49:00,
2013-02-13 12:54:00,61.1,42.8,30.29,NE,36,1.0,4.0,51,0.00,,,0.00,Wunderground v.1.15,2013-02-13 20:54:00,
2013-02-13 12:59:00,61.6,42.2,30.29,NE,49,3.0,6.0,49,0.00,,,0.00,Wunderground v.1.15,2013-02-13 20:59:00,
2013-02-13 13:04:00,62.0,42.1,30.29,NE,51,1.0,4.0,48,0.00,,,0.00,Wunderground v.1.15,2013-02-13 21:04:00,
2013-02-13 13:09:00,61.5,41.6,30.28,NE,51,0.0,4.0,48,0.00,,,0.00,Wunderground v.1.15,2013-02-13 21:09:00,
2013-02-13 13:14:00,61.8,41.9,30.28,NE,51,0.0,3.0,48,0.00,,,0.00,Wunderground v.1.15,2013-02-13 21:14:00,
2013-02-13 13:19:00,63.4,42.8,30.28,NE,51,1.0,3.0,47,0.00,,,0.00,Wunderground v.1.15,2013-02-13 21:19:00,
2013-02-13 13:24:00,62.9,41.8,30.28,NE,51,0.0,2.0,46,0.00,,,0.00,Wunderground v.1.15,2013-02-13 21:24:00,
2013-02-13 13:29:00,63.3,42.2,30.27,NE,51,1.0,3.0,46,0.00,,,0.00,Wunderground v.1.15,2013-02-13 21:29:00,
2013-02-13 13:34:00,63.8,42.6,30.27,ESE,115,3.0,5.0,46,0.00,,,0.00,Wunderground v.1.15,2013-02-13 21:34:00,
2013-02-13 13:39:00,63.4,42.2,30.27,SSE,149,2.0,5.0,46,0.00,,,0.00,Wunderground v.1.15,2013-02-13 21:39:00,
2013-02-13 13:44:00,63.3,42.2,30.27,SSE,150,4.0,5.0,46,0.00,,,0.00,Wunderground v.1.15,2013-02-13 21:44:00,
2013-02-13 13:49:00,63.4,41.1,30.26,SSE,150,2.0,6.0,44,0.00,,,0.00,Wunderground v.1.15,2013-02-13 21:49:00,
2013-02-13 13:54:00,63.8,41.5,30.26,SSE,150,0.0,4.0,44,0.00,,,0.00,Wunderground v.1.15,2013-02-13 21:54:00,
2013-02-13 13:59:00,64.0,42.2,30.26,SSE,150,4.0,5.0,45,0.00,,,0.00,Wunderground v.1.15,2013-02-13 21:59:00,
2013-02-13 14:04:00,63.5,42.9,30.26,SE,142,3.0,5.0,47,0.00,,,0.00,Wunderground v.1.15,2013-02-13 22:04:00,
2013-02-13 14:09:00,63.2,42.6,30.26,SSE,149,4.0,7.0,47,0.00,,,0.00,Wunderground v.1.15,2013-02-13 22:09:00,
2013-02-13 14:14:00,63.5,42.9,30.25,SSE,152,1.0,6.0,47,0.00,,,0.00,Wunderground v.1.15,2013-02-13 22:14:00,
2013-02-13 14:19:00,64.4,43.2,30.25,SSE,153,3.0,6.0,46,0.00,,,0.00,Wunderground v.1.15,2013-02-13 22:19:00,
2013-02-13 14:24:00,64.8,42.9,30.25,SSE,153,0.0,5.0,45,0.00,,,0.00,Wunderground v.1.15,2013-02-13 22:24:00,
2013-02-13 14:29:00,65.2,43.3,30.25,SSE,154,1.0,5.0,45,0.00,,,0.00,Wunderground v.1.15,2013-02-13 22:29:00,
2013-02-13 14:34:00,65.4,43.5,30.25,SSE,155,2.0,5.0,45,0.00,,,0.00,Wunderground v.1.15,2013-02-13 22:34:00,
2013-02-13 14:39:00,64.6,42.8,30.24,SSE,155,0.0,5.0,45,0.00,,,0.00,Wunderground v.1.15,2013-02-13 22:39:00,
2013-02-13 14:44:00,65.0,43.7,30.25,SSE,159,3.0,6.0,46,0.00,,,0.00,Wunderground v.1.15,2013-02-13 22:44:00,
2013-02-13 14:49:00,64.7,44.0,30.24,SSE,168,5.0,7.0,47,0.00,,,0.00,Wunderground v.1.15,2013-02-13 22:49:00,
2013-02-13 14:54:00,64.9,44.2,30.24,South,189,5.0,8.0,47,0.00,,,0.00,Wunderground v.1.15,2013-02-13 22:54:00,
2013-02-13 14:59:00,64.5,44.4,30.24,South,180,3.0,8.0,48,0.00,,,0.00,Wunderground v.1.15,2013-02-13 22:59:00,
2013-02-13 15:04:00,64.6,44.5,30.24,South,184,5.0,9.0,48,0.00,,,0.00,Wunderground v.1.15,2013-02-13 23:04:00,
2013-02-13 15:09:00,64.5,44.4,30.24,South,188,2.0,9.0,48,0.00,,,0.00,Wunderground v.1.15,2013-02-13 23:09:00,
2013-02-13 15:14:00,64.6,45.0,30.24,SSW,200,5.0,7.0,49,0.00,,,0.00,Wunderground v.1.15,2013-02-13 23:14:00,
2013-02-13 15:19:00,64.6,44.5,30.24,South,185,4.0,7.0,48,0.00,,,0.00,Wunderground v.1.15,2013-02-13 23:19:00,
2013-02-13 15:24:00,64.4,44.8,30.23,SSW,196,4.0,7.0,49,0.00,,,0.00,Wunderground v.1.15,2013-02-13 23:24:00,
2013-02-13 15:29:00,64.3,44.7,30.23,South,182,7.0,8.0,49,0.00,,,0.00,Wunderground v.1.15,2013-02-13 23:29:00,
2013-02-13 15:34:00,64.3,44.7,30.23,SSW,201,7.0,11.0,49,0.00,,,0.00,Wunderground v.1.15,2013-02-13 23:34:00,
2013-02-13 15:39:00,64.1,44.5,30.23,South,171,7.0,11.0,49,0.00,,,0.00,Wunderground v.1.15,2013-02-13 23:39:00,
2013-02-13 15:44:00,64.2,44.6,30.23,South,188,5.0,8.0,49,0.00,,,0.00,Wunderground v.1.15,2013-02-13 23:44:00,
2013-02-13 15:49:00,64.5,44.9,30.23,South,173,7.0,9.0,49,0.00,,,0.00,Wunderground v.1.15,2013-02-13 23:49:00,
2013-02-13 15:54:00,64.2,44.6,30.23,South,180,4.0,9.0,49,0.00,,,0.00,Wunderground v.1.15,2013-02-13 23:54:00,
2013-02-13 15:59:00,64.1,44.5,30.23,South,185,4.0,9.0,49,0.00,,,0.00,Wunderground v.1.15,2013-02-13 23:59:00,
2013-02-13 16:04:00,64.2,45.2,30.22,South,190,4.0,8.0,50,0.00,,,0.00,Wunderground v.1.15,2013-02-14 00:04:00,
2013-02-13 16:09:00,63.9,44.9,30.22,South,188,4.0,8.0,50,0.00,,,0.00,Wunderground v.1.15,2013-02-14 00:09:00,
2013-02-13 16:14:00,63.6,44.6,30.22,South,186,6.0,8.0,50,0.00,,,0.00,Wunderground v.1.15,2013-02-14 00:14:00,
2013-02-13 16:19:00,63.4,44.4,30.22,SSW,192,3.0,8.0,50,0.00,,,0.00,Wunderground v.1.15,2013-02-14 00:19:00,
2013-02-13 16:24:00,63.6,44.6,30.22,South,190,3.0,7.0,50,0.00,,,0.00,Wunderground v.1.15,2013-02-14 00:24:00,
2013-02-13 16:29:00,63.6,44.6,30.21,South,182,2.0,7.0,50,0.00,,,0.00,Wunderground v.1.15,2013-02-14 00:29:00,
2013-02-13 16:34:00,63.5,44.5,30.21,South,184,2.0,6.0,50,0.00,,,0.00,Wunderground v.1.15,2013-02-14 00:34:00,
2013-02-13 16:39:00,63.5,44.5,30.21,South,175,4.0,6.0,50,0.00,,,0.00,Wunderground v.1.15,2013-02-14 00:39:00,
2013-02-13 16:44:00,63.4,44.4,30.21,South,176,3.0,6.0,50,0.00,,,0.00,Wunderground v.1.15,2013-02-14 00:44:00,
2013-02-13 16:49:00,63.2,44.2,30.21,South,173,4.0,7.0,50,0.00,,,0.00,Wunderground v.1.15,2013-02-14 00:49:00,
2013-02-13 16:54:00,62.9,44.0,30.21,South,178,2.0,8.0,50,0.00,,,0.00,Wunderground v.1.15,2013-02-14 00:54:00,
2013-02-13 16:59:00,62.9,44.5,30.21,South,178,3.0,8.0,51,0.00,,,0.00,Wunderground v.1.15,2013-02-14 00:59:00,
2013-02-13 17:04:00,62.9,44.5,30.21,South,178,2.0,6.0,51,0.00,,,0.00,Wunderground v.1.15,2013-02-14 01:04:00,
2013-02-13 17:09:00,62.8,43.9,30.21,South,178,2.0,6.0,50,0.00,,,0.00,Wunderground v.1.15,2013-02-14 01:09:00,
2013-02-13 17:14:00,62.5,44.1,30.21,South,177,2.0,6.0,51,0.00,,,0.00,Wunderground v.1.15,2013-02-14 01:14:00,
2013-02-13 17:19:00,62.2,43.8,30.21,South,177,3.0,6.0,51,0.00,,,0.00,Wunderground v.1.15,2013-02-14 01:19:00,
2013-02-13 17:25:00,61.8,44.5,30.21,South,177,2.0,5.0,53,0.00,,,0.00,Wunderground v.1.15,2013-02-14 01:25:00,
2013-02-13 17:30:00,61.3,44.5,30.21,South,177,3.0,3.0,54,0.00,,,0.00,Wunderground v.1.15,2013-02-14 01:30:00,
2013-02-13 17:35:00,61.0,44.7,30.20,South,177,4.0,4.0,55,0.00,,,0.00,Wunderground v.1.15,2013-02-14 01:35:00,
2013-02-13 17:40:00,60.6,44.3,30.21,South,177,2.0,3.0,55,0.00,,,0.00,Wunderground v.1.15,2013-02-14 01:40:00,
2013-02-13 17:45:00,60.0,44.3,30.21,South,177,2.0,4.0,56,0.00,,,0.00,Wunderground v.1.15,2013-02-14 01:45:00,
2013-02-13 17:50:00,59.5,44.2,30.20,South,177,2.0,2.0,57,0.00,,,0.00,Wunderground v.1.15,2013-02-14 01:50:00,
2013-02-13 17:55:00,59.1,44.3,30.21,South,177,2.0,3.0,58,0.00,,,0.00,Wunderground v.1.15,2013-02-14 01:55:00,
2013-02-13 18:00:00,58.6,44.8,30.21,South,177,1.0,2.0,60,0.00,,,0.00,Wunderground v.1.15,2013-02-14 02:00:00,
2013-02-13 18:05:00,58.0,44.6,30.21,South,177,3.0,3.0,61,0.00,,,0.00,Wunderground v.1.15,2013-02-14 02:05:00,
2013-02-13 18:10:00,57.5,44.6,30.21,South,177,2.0,2.0,62,0.00,,,0.00,Wunderground v.1.15,2013-02-14 02:10:00,
2013-02-13 18:15:00,57.1,45.0,30.21,South,177,2.0,4.0,64,0.00,,,0.00,Wunderground v.1.15,2013-02-14 02:15:00,
2013-02-13 18:20:00,56.8,44.7,30.21,South,177,3.0,3.0,64,0.00,,,0.00,Wunderground v.1.15,2013-02-14 02:20:00,
2013-02-13 18:25:00,56.6,45.0,30.21,South,177,1.0,3.0,65,0.00,,,0.00,Wunderground v.1.15,2013-02-14 02:25:00,
2013-02-13 18:30:00,56.5,45.3,30.21,South,177,1.0,1.0,66,0.00,,,0.00,Wunderground v.1.15,2013-02-14 02:30:00,
2013-02-13 18:35:00,56.4,45.2,30.21,South,177,1.0,3.0,66,0.00,,,0.00,Wunderground v.1.15,2013-02-14 02:35:00,
2013-02-13 18:40:00,56.2,45.0,30.21,South,177,1.0,1.0,66,0.00,,,0.00,Wunderground v.1.15,2013-02-14 02:40:00,
2013-02-13 18:45:00,56.1,44.9,30.21,South,177,1.0,3.0,66,0.00,,,0.00,Wunderground v.1.15,2013-02-14 02:45:00,
2013-02-13 18:50:00,55.9,45.1,30.21,South,177,0.0,1.0,67,0.00,,,0.00,Wunderground v.1.15,2013-02-14 02:50:00,
2013-02-13 18:55:00,55.6,44.8,30.21,South,177,0.0,1.0,67,0.00,,,0.00,Wunderground v.1.15,2013-02-14 02:55:00,
2013-02-13 19:00:00,55.3,44.9,30.21,South,177,0.0,0.0,68,0.00,,,0.00,Wunderground v.1.15,2013-02-14 03:00:00,
2013-02-13 19:05:00,54.8,44.8,30.21,South,177,0.0,0.0,69,0.00,,,0.00,Wunderground v.1.15,2013-02-14 03:05:00,
2013-02-13 19:10:00,54.4,44.4,30.21,South,177,0.0,0.0,69,0.00,,,0.00,Wunderground v.1.15,2013-02-14 03:10:00,
2013-02-13 19:15:00,54.0,44.4,30.21,South,177,0.0,1.0,70,0.00,,,0.00,Wunderground v.1.15,2013-02-14 03:15:00,
2013-02-13 19:20:00,53.6,44.4,30.22,South,177,0.0,0.0,71,0.00,,,0.00,Wunderground v.1.15,2013-02-14 03:20:00,
2013-02-13 19:25:00,53.3,44.5,30.21,South,177,0.0,0.0,72,0.00,,,0.00,Wunderground v.1.15,2013-02-14 03:25:00,
2013-02-13 19:30:00,53.0,44.2,30.21,South,177,0.0,0.0,72,0.00,,,0.00,Wunderground v.1.15,2013-02-14 03:30:00,
2013-02-13 19:35:00,52.7,44.3,30.22,South,177,0.0,0.0,73,0.00,,,0.00,Wunderground v.1.15,2013-02-14 03:35:00,
2013-02-13 19:40:00,52.6,44.2,30.22,South,177,0.0,0.0,73,0.00,,,0.00,Wunderground v.1.15,2013-02-14 03:40:00,
2013-02-13 19:45:00,52.4,44.0,30.22,South,177,0.0,0.0,73,0.00,,,0.00,Wunderground v.1.15,2013-02-14 03:45:00,
2013-02-13 19:50:00,52.3,43.9,30.22,South,177,0.0,0.0,73,0.00,,,0.00,Wunderground v.1.15,2013-02-14 03:50:00,
2013-02-13 19:55:00,52.2,44.2,30.22,South,177,0.0,0.0,74,0.00,,,0.00,Wunderground v.1.15,2013-02-14 03:55:00,
2013-02-13 20:00:00,51.9,43.9,30.22,South,177,0.0,0.0,74,0.00,,,0.00,Wunderground v.1.15,2013-02-14 04:00:00,
2013-02-13 20:05:00,51.5,43.8,30.22,South,177,0.0,1.0,75,0.00,,,0.00,Wunderground v.1.15,2013-02-14 04:05:00,
2013-02-13 20:10:00,51.2,43.5,30.22,South,177,0.0,0.0,75,0.00,,,0.00,Wunderground v.1.15,2013-02-14 04:10:00,
2013-02-13 20:15:00,51.1,43.8,30.22,South,177,0.0,0.0,76,0.00,,,0.00,Wunderground v.1.15,2013-02-14 04:15:00,
2013-02-13 20:20:00,50.9,43.6,30.22,South,177,0.0,0.0,76,0.00,,,0.00,Wunderground v.1.15,2013-02-14 04:20:00,
2013-02-13 20:25:00,50.6,43.3,30.22,South,177,0.0,0.0,76,0.00,,,0.00,Wunderground v.1.15,2013-02-14 04:25:00,
2013-02-13 20:30:00,50.2,43.3,30.22,South,177,0.0,0.0,77,0.00,,,0.00,Wunderground v.1.15,2013-02-14 04:30:00,
2013-02-13 20:36:00,50.2,43.6,30.22,South,177,0.0,0.0,78,0.00,,,0.00,Wunderground v.1.15,2013-02-14 04:36:00,
2013-02-13 20:41:00,49.9,43.3,30.22,South,177,0.0,0.0,78,0.00,,,0.00,Wunderground v.1.15,2013-02-14 04:41:00,
2013-02-13 20:46:00,49.8,43.5,30.22,South,177,0.0,0.0,79,0.00,,,0.00,Wunderground v.1.15,2013-02-14 04:46:00,
2013-02-13 20:51:00,49.9,43.6,30.22,South,177,0.0,0.0,79,0.00,,,0.00,Wunderground v.1.15,2013-02-14 04:51:00,
2013-02-13 20:56:00,49.7,43.1,30.22,South,177,0.0,1.0,78,0.00,,,0.00,Wunderground v.1.15,2013-02-14 04:56:00,
2013-02-13 21:00:00,49.5,42.9,30.22,South,177,0.0,0.0,78,0.00,,,0.00,Wunderground v.1.15,2013-02-14 05:00:00,
2013-02-13 21:05:00,49.3,43.1,30.22,South,177,0.0,2.0,79,0.00,,,0.00,Wunderground v.1.15,2013-02-14 05:05:00,
2013-02-13 21:10:00,49.3,43.1,30.22,South,177,0.0,0.0,79,0.00,,,0.00,Wunderground v.1.15,2013-02-14 05:10:00,
2013-02-13 21:15:00,49.3,43.1,30.22,South,177,0.0,0.0,79,0.00,,,0.00,Wunderground v.1.15,2013-02-14 05:15:00,
2013-02-13 21:20:00,49.2,43.0,30.22,South,177,0.0,0.0,79,0.00,,,0.00,Wunderground v.1.15,2013-02-14 05:20:00,
2013-02-13 21:25:00,49.1,42.9,30.22,South,177,0.0,0.0,79,0.00,,,0.00,Wunderground v.1.15,2013-02-14 05:25:00,
2013-02-13 21:30:00,49.0,42.8,30.22,South,177,0.0,0.0,79,0.00,,,0.00,Wunderground v.1.15,2013-02-14 05:30:00,
2013-02-13 21:35:00,49.2,43.0,30.22,South,177,0.0,0.0,79,0.00,,,0.00,Wunderground v.1.15,2013-02-14 05:35:00,
2013-02-13 21:40:00,49.1,42.9,30.22,South,177,0.0,0.0,79,0.00,,,0.00,Wunderground v.1.15,2013-02-14 05:40:00,
2013-02-13 21:45:00,48.9,42.7,30.22,South,177,0.0,0.0,79,0.00,,,0.00,Wunderground v.1.15,2013-02-14 05:45:00,
2013-02-13 21:50:00,48.7,42.5,30.22,South,177,0.0,0.0,79,0.00,,,0.00,Wunderground v.1.15,2013-02-14 05:50:00,
2013-02-13 21:55:00,48.5,42.3,30.22,South,177,0.0,2.0,79,0.00,,,0.00,Wunderground v.1.15,2013-02-14 05:55:00,
2013-02-13 22:00:00,48.5,42.6,30.22,South,177,0.0,0.0,80,0.00,,,0.00,Wunderground v.1.15,2013-02-14 06:00:00,
2013-02-13 22:05:00,48.3,42.1,30.23,South,177,0.0,0.0,79,0.00,,,0.00,Wunderground v.1.15,2013-02-14 06:05:00,
2013-02-13 22:10:00,48.1,42.2,30.23,South,177,0.0,0.0,80,0.00,,,0.00,Wunderground v.1.15,2013-02-14 06:10:00,
2013-02-13 22:15:00,48.0,42.1,30.23,South,177,0.0,0.0,80,0.00,,,0.00,Wunderground v.1.15,2013-02-14 06:15:00,
2013-02-13 22:20:00,47.7,41.8,30.23,South,177,0.0,0.0,80,0.00,,,0.00,Wunderground v.1.15,2013-02-14 06:20:00,
2013-02-13 22:25:00,47.2,41.7,30.23,South,177,0.0,1.0,81,0.00,,,0.00,Wunderground v.1.15,2013-02-14 06:25:00,
2013-02-13 22:30:00,46.7,41.2,30.23,South,177,0.0,1.0,81,0.00,,,0.00,Wunderground v.1.15,2013-02-14 06:30:00,
2013-02-13 22:35:00,45.9,40.4,30.23,South,177,1.0,2.0,81,0.00,,,0.00,Wunderground v.1.15,2013-02-14 06:35:00,
2013-02-13 22:41:00,45.4,40.5,30.23,South,177,0.0,1.0,83,0.00,,,0.00,Wunderground v.1.15,2013-02-14 06:41:00,
2013-02-13 22:46:00,45.1,40.6,30.23,South,177,0.0,2.0,84,0.00,,,0.00,Wunderground v.1.15,2013-02-14 06:46:00,
2013-02-13 22:51:00,45.0,40.5,30.23,South,177,0.0,0.0,84,0.00,,,0.00,Wunderground v.1.15,2013-02-14 06:51:00,
2013-02-13 22:55:00,45.1,40.6,30.23,South,177,0.0,0.0,84,0.00,,,0.00,Wunderground v.1.15,2013-02-14 06:55:00,
2013-02-13 23:00:00,45.1,40.6,30.23,South,177,0.0,0.0,84,0.00,,,0.00,Wunderground v.1.15,2013-02-14 07:00:00,
2013-02-13 23:06:00,45.2,41.0,30.23,South,177,0.0,0.0,85,0.00,,,0.00,Wunderground v.1.15,2013-02-14 07:06:00,
2013-02-13 23:11:00,45.3,41.1,30.24,South,177,0.0,0.0,85,0.00,,,0.00,Wunderground v.1.15,2013-02-14 07:11:00,
2013-02-13 23:16:00,45.2,40.7,30.24,South,177,0.0,2.0,84,0.00,,,0.00,Wunderground v.1.15,2013-02-14 07:16:00,
2013-02-13 23:21:00,45.0,40.5,30.24,South,177,0.0,0.0,84,0.00,,,0.00,Wunderground v.1.15,2013-02-14 07:21:00,
2013-02-13 23:26:00,44.9,40.7,30.24,South,177,0.0,1.0,85,0.00,,,0.00,Wunderground v.1.15,2013-02-14 07:26:00,
2013-02-13 23:31:00,44.9,40.7,30.24,South,177,0.0,1.0,85,0.00,,,0.00,Wunderground v.1.15,2013-02-14 07:31:00,
2013-02-13 23:36:00,44.9,40.7,30.24,South,177,0.0,1.0,85,0.00,,,0.00,Wunderground v.1.15,2013-02-14 07:36:00,
2013-02-13 23:41:00,44.8,40.6,30.24,South,177,0.0,0.0,85,0.00,,,0.00,Wunderground v.1.15,2013-02-14 07:41:00,
2013-02-13 23:46:00,44.7,40.5,30.24,South,177,0.0,0.0,85,0.00,,,0.00,Wunderground v.1.15,2013-02-14 07:46:00,
2013-02-13 23:51:00,44.6,40.4,30.24,South,177,0.0,0.0,85,0.00,,,0.00,Wunderground v.1.15,2013-02-14 07:51:00,
2013-02-13 23:56:00,44.5,40.3,30.24,South,177,0.0,0.0,85,0.00,,,0.00,Wunderground v.1.15,2013-02-14 07:56:00,